Regional Weather Roundup
Issued by NWS

Home | Current Version | Previous Version | Text Only | Print | Product List | Glossary On
Versions: 1 2 3 4 5 6 7 8 9 10 11 12 13 14 15 16 17 18 19 20 21 22 23 24 25 26 27 28 29 30 31 32 33 34 35 36 37 38 39 40 41 42 43 44 45 46 47 48 49 50
000
ASUS44 KOUN 111710
RWROK

WEATHER ROUNDUP FOR OKLAHOMA
NATIONAL WEATHER SERVICE NORMAN OK
1100 AM CST THU FEB 11 2016

NOTE: "FAIR" INDICATES FEW OR NO CLOUDS BELOW 12,000 FEET WITH NO
      SIGNIFICANT WEATHER AND/OR OBSTRUCTIONS TO VISIBILITY.

OKZ001>007-009>012-014-015-017-111800-
NORTHWEST OKLAHOMA AND THE PANHANDLE

CITY           SKY/WX    TMP DP  RH WIND       PRES   REMARKS
GAGE           SUNNY     48  31  51 VRB6      30.24R
GUYMON         SUNNY     49  29  46 S5        30.23S
ENID/WOODRING  SUNNY     45  30  57 N15G21    30.24R
$$

OKZ016-021>023-033>039-044-045-111800-
SOUTHWEST OKLAHOMA

CITY           SKY/WX    TMP DP  RH WIND       PRES   REMARKS
LAWTON/REGL    SUNNY     59  34  39 NE15      30.18R
LAWTON/FT SILL SUNNY     58  35  42 NE12      30.16S
FREDERICK      SUNNY     60  35  39 NE12      30.15S
CLINTON        SUNNY     52  33  48 NE14      30.23R
HOBART         SUNNY     55  34  45 NE15      30.21R
ALTUS AFB      SUNNY     55  31  40 NE14      30.20F
$$

OKZ018>020-024>031-111800-
CENTRAL OKLAHOMA

CITY           SKY/WX    TMP DP  RH WIND       PRES   REMARKS
OKLAHOMA CITY  MOSUNNY   51  31  46 N9        30.21R
OKC/WILEY POST SUNNY     50  32  50 N10       30.21R
OKC/TINKER AFB SUNNY     53  30  41 N12       30.19R
STILLWATER     SUNNY     46  27  47 NE10      30.23R
GUTHRIE        SUNNY     47  29  49 VRB6      30.22R
$$

OKZ008-013-054>072-111800-
NORTHEAST OKLAHOMA

CITY           SKY/WX    TMP DP  RH WIND       PRES   REMARKS
TULSA          MOSUNNY   41  26  55 N12       30.23R
TULSA/JONES    SUNNY     42  25  50 N13       30.23R
PONCA CITY     SUNNY     42  25  50 NE13      30.25R
BARTLESVILLE   SUNNY     39  23  52 N10       30.27R WCI  32
MUSKOGEE       SUNNY     48  29  47 N12       30.19R
$$

OKZ032-040>043-046>053-073>077-111800-
SOUTH CENTRAL/SOUTHEAST OKLAHOMA

CITY           SKY/WX    TMP DP  RH WIND       PRES   REMARKS
ARDMORE/DWNTWN SUNNY     61  30  31 NE12      30.14S
MCALESTER      SUNNY     55  32  41 N9        30.15R
$$




USA.gov is the U.S. government's official web portal to all federal, state and local government web resources and services.